Wind_Speed
66 63 61 63 66 69 69 65 62 58 53 49 48 49 45 41 42 42 26 27 23 22 15 13 14 14 9 7 11 13 11 7 7 9 10 8 11 12 17 18 21 24 28 31
66 68 67 65 64 68 68 68 66 60 57 54 50 46 45 44 43 45 35 35 30 31 20 18 15 13 11 8 8 10 12 8 5 7 9 8 8 11 12 14 17 19 24 27
72 71 72 67 63 63 69 72 72 66 62 58 56 53 46 44 43 43 42 36 34 32 28 23 17 15 14 7 3 6 10 8 5 4 6 5 6 7 9 12 14 16 19 22
78 73 70 71 68 65 67 72 73 71 66 59 57 54 53 49 46 44 42 40 36 32 28 23 22 16 14 8 6 1 6 9 4 2 3 3 4 5 7 9 11 12 15 17
83 77 73 74 73 71 68 71 71 71 71 65 61 63 58 55 48 44 44 42 38 36 32 27 25 19 16 12 7 5 2 7 6 3 2 2 2 3 5 6 7 9 11 14
85 85 81 76 78 76 71 65 67 73 74 69 67 65 62 57 47 47 45 43 41 39 36 33 30 26 20 17 11 12 9 5 6 2 4 3 3 2 1 4 4 6 8 10
78 88 88 83 78 79 71 70 68 69 73 71 72 73 63 58 59 52 48 45 42 40 39 36 31 28 22 21 19 17 14 11 6 3 3 6 6 4 3 2 4 5 5 8
75 88 92 88 82 78 75 76 70 66 67 72 75 77 64 64 60 55 50 48 45 43 41 37 35 33 27 26 24 21 19 15 13 7 6 7 8 9 7 6 3 3 3 5
75 86 91 93 91 82 80 79 76 75 71 73 78 70 66 66 65 62 57 53 50 48 44 41 39 37 33 31 28 24 23 22 18 17 11 7 10 12 13 11 8 6 3 3
81 81 88 98 95 90 83 84 84 77 75 74 74 70 74 74 70 65 65 57 54 53 49 46 43 41 39 36 34 31 28 26 23 19 18 12 11 16 17 15 14 11 9 6
77 76 84 95 98 95 90 89 88 84 82 77 76 76 65 67 70 70 65 66 62 59 55 55 51 46 46 41 39 36 32 32 30 25 22 20 13 16 19 18 17 16 15 13
75 77 81 97 104 99 94 92 91 88 86 81 85 82 71 72 71 69 69 68 66 63 62 60 57 52 50 46 44 41 37 34 34 33 27 24 23 19 21 22 22 20 18 18
77 78 84 89 102 106 102 99 93 90 94 91 90 82 80 78 73 70 70 68 67 66 65 62 61 58 52 47 48 45 45 41 37 37 35 31 27 27 22 21 25 26 24 22
75 80 81 92 104 111 108 101 98 95 94 90 95 89 85 81 77 73 72 70 68 67 65 63 61 60 57 54 49 38 44 43 42 41 38 35 31 29 27 22 22 27 29 29
75 76 80 87 95 106 108 107 103 99 97 102 106 97 87 85 82 79 78 75 72 70 68 66 64 61 58 55 53 50 46 42 40 44 42 39 34 31 31 30 27 26 29 31
69 72 79 84 93 104 107 107 104 104 101 101 102 90 79 87 89 87 85 82 78 75 72 69 67 63 60 58 56 54 52 50 47 43 43 42 39 36 35 34 32 29 28 29
65 66 70 79 90 101 106 110 109 110 107 109 102 92 91 90 91 90 88 87 85 82 78 75 72 69 66 63 61 59 57 54 51 47 44 43 42 42 40 39 37 35 30 29
63 65 68 75 79 94 107 107 109 111 109 111 105 95 96 95 95 94 92 90 87 85 83 80 78 75 72 69 67 64 62 59 55 53 49 47 47 47 47 43 43 39 33 30
63 64 67 69 73 84 90 105 111 114 111 112 111 104 103 102 101 98 97 93 90 87 85 83 82 80 78 76 74 72 69 66 62 59 56 54 52 51 51 51 47 44 40 36
64 66 66 69 70 76 88 91 104 112 114 111 112 111 108 106 108 102 97 96 95 95 92 90 87 85 82 81 78 77 75 73 71 67 64 61 58 57 56 54 54 50 45 45
64 67 69 69 72 76 70 88 100 107 114 109 115 112 113 113 111 102 104 106 104 102 99 97 94 92 89 87 85 83 80 78 76 73 71 70 67 64 61 58 54 56 53 49
63 66 70 73 73 73 69 82 92 101 108 109 113 115 118 117 116 112 110 109 109 106 106 104 102 99 97 95 93 90 88 85 82 80 77 75 74 72 68 66 65 62 59 58
59 64 69 72 74 71 75 80 81 89 99 107 115 118 120 121 120 118 117 116 114 113 111 110 108 107 104 102 100 99 97 94 91 88 85 82 79 78 78 74 72 70 68 66
57 60 65 69 71 75 76 79 80 82 84 91 103 112 118 121 123 123 124 124 122 120 120 118 116 114 112 110 108 105 104 101 98 94 92 89 87 84 82 81 80 76 74 72
53 58 61 64 69 72 75 77 80 81 84 85 88 96 105 113 118 122 124 126 126 125 125 125 124 123 120 118 116 114 111 109 106 103 99 96 93 91 88 86 84 84 80 78
49 53 56 59 63 69 72 77 81 83 84 85 86 87 91 97 105 113 117 122 124 126 128 130 130 129 128 126 125 122 119 116 114 111 109 106 101 97 95 93 90 88 87 84
Wind_Direction
220 216 216 219 220 221 227 229 230 229 229 228 225 226 231 231 225 232 225 221 229 238 267 273 288 307 329 354 26 37 35 3 8 13 22 28 40 32 46 52 54 55 58 57
220 219 217 218 222 223 225 227 229 230 233 234 231 230 228 231 232 231 226 232 240 253 257 255 265 283 307 337 345 40 52 22 350 358 4 23 33 33 40 49 55 61 56 61
218 220 217 217 219 221 221 225 229 229 230 234 237 237 234 230 231 232 234 237 242 252 254 254 260 272 271 298 340 33 45 50 355 343 360 18 42 28 34 40 53 58 65 61
219 218 219 219 218 220 222 222 225 228 230 228 231 234 237 235 232 230 232 236 242 246 246 246 254 254 260 258 258 298 25 39 43 35 347 338 6 18 38 39 45 60 71 68
219 217 218 219 218 220 221 221 221 226 226 226 228 234 236 236 236 236 234 234 235 236 240 240 249 246 248 247 249 237 316 358 15 89 194 257 316 4 53 58 54 71 70 73
218 217 217 218 219 219 220 223 222 225 228 226 227 230 232 237 231 227 233 234 232 234 236 238 240 240 241 242 245 242 254 285 346 26 191 216 236 297 79 106 68 52 67 76
218 217 217 217 218 220 217 221 222 224 227 227 227 228 231 232 234 232 230 231 233 232 234 232 237 238 234 235 240 247 254 258 278 303 238 214 220 231 236 155 120 77 65 81
218 218 216 216 216 218 216 220 221 223 226 228 229 229 224 227 228 227 226 225 230 231 233 232 233 236 233 237 238 240 248 249 253 267 289 222 223 222 232 232 225 151 104 87
219 219 217 216 216 215 215 217 220 220 221 225 229 229 223 227 227 228 226 225 228 229 229 232 236 240 241 240 242 240 244 248 249 249 258 262 223 227 228 241 236 237 202 138
221 218 217 216 215 214 214 216 219 220 224 227 230 228 226 226 225 226 228 230 225 229 233 234 237 241 240 239 242 241 240 244 249 248 246 245 230 227 228 228 238 234 233 229
221 220 219 217 216 215 214 214 217 218 221 223 228 228 227 230 230 229 227 227 228 228 229 233 232 235 242 239 240 242 241 242 244 247 249 247 245 232 237 233 228 238 237 236
223 220 220 216 214 215 216 216 216 216 222 225 229 225 224 226 227 227 226 228 228 227 230 232 234 234 234 238 243 244 244 241 241 243 241 248 241 228 222 235 237 234 242 243
228 224 221 218 216 215 215 216 215 218 220 220 226 226 229 228 228 228 230 229 230 232 232 232 234 236 233 235 242 245 251 245 241 243 245 242 241 243 234 221 232 237 236 242
220 219 219 219 214 214 214 216 218 217 219 222 229 227 226 228 229 230 231 231 231 231 232 232 233 236 238 239 235 233 245 249 244 245 245 243 243 244 244 236 227 232 230 231
216 218 219 219 218 218 216 216 217 219 220 222 225 225 222 229 231 231 232 232 233 233 235 236 236 236 238 239 239 233 234 239 241 242 243 241 238 243 246 243 236 236 235 234
218 219 218 219 217 216 216 218 218 222 222 226 226 227 229 231 232 232 233 234 235 235 235 236 237 237 237 237 238 239 237 236 238 241 241 240 240 237 239 243 249 246 245 244
216 219 221 221 219 217 217 217 219 221 223 227 224 221 225 227 232 233 235 236 236 236 236 237 237 238 237 237 237 239 239 239 239 238 236 239 237 238 237 236 239 245 250 250
218 218 220 220 220 221 219 219 221 223 224 227 225 221 226 228 229 233 234 235 236 237 238 238 239 239 239 239 239 239 239 239 238 238 235 234 234 235 234 235 239 240 241 248
220 220 222 223 223 222 222 222 223 223 224 227 226 223 225 229 230 230 232 234 236 238 238 238 239 240 240 241 241 241 241 240 238 238 237 234 232 233 234 234 233 238 240 241
222 222 223 222 225 224 223 223 226 227 226 229 227 227 227 230 232 229 233 236 237 238 238 239 240 241 241 241 241 241 242 241 241 239 238 237 235 233 232 233 234 234 239 240
225 223 224 224 224 226 222 225 225 226 228 230 230 230 231 231 233 231 233 234 235 237 239 240 241 241 241 242 242 242 242 241 241 240 239 238 237 235 233 233 232 229 231 238
227 226 226 226 226 226 223 228 227 229 228 228 231 232 233 233 234 232 233 236 237 237 238 239 240 241 242 243 243 243 242 242 242 241 240 239 238 237 236 233 233 233 230 230
232 229 228 228 229 228 225 228 230 230 230 231 232 233 233 234 236 235 234 235 237 238 239 240 241 241 242 242 242 243 244 243 242 242 241 239 238 237 237 236 235 234 233 233
233 231 231 230 229 229 227 229 231 233 232 233 234 235 236 236 237 238 237 237 238 238 239 240 241 242 243 243 243 242 243 244 244 243 242 240 239 238 237 236 236 234 234 233
236 235 233 233 231 231 230 230 231 232 233 233 234 236 237 238 239 240 240 240 240 240 241 241 241 242 243 243 242 242 242 243 243 243 242 241 240 238 238 237 236 235 233 233
238 238 237 235 234 233 232 232 231 231 232 233 234 235 237 238 239 240 241 241 242 242 241 241 241 242 242 243 243 243 243 242 242 241 241 242 240 239 237 236 236 235 234 232
Height
10877 10888 10897 10901 10910 10916 10929 10943 10949 10957 10965 10973 10982 10984 10987 10991 10996 10999 11002 11006 11007 11009 11012 11013 11013 11013 11012 11011 11010 11007 11005 11005 11004 11004 11004 11002 11001 11001 10999 10996 10994 10993 10990 10987
10866 10875 10882 10892 10900 10912 10924 10929 10937 10949 10955 10961 10968 10976 10981 10984 10990 10994 10998 11001 11004 11005 11010 11012 11013 11013 11013 11011 11011 11008 11006 11005 11005 11005 11005 11004 11003 11003 11002 11000 10999 10998 10996 10994
10849 10856 10870 10882 10891 10900 10905 10917 10928 10940 10943 10950 10957 10965 10972 10977 10982 10987 10992 10997 11000 11003 11006 11009 11011 11012 11011 11010 11011 11009 11007 11006 11005 11005 11006 11005 11006 11004 11005 11003 11002 11001 11000 11000
10835 10848 10860 10871 10879 10887 10894 10905 10915 10925 10936 10939 10946 10954 10960 10969 10974 10981 10986 10990 10995 10998 11002 11005 11007 11009 11009 11009 11010 11009 11008 11007 11006 11005 11007 11007 11007 11007 11007 11006 11005 11004 11003 11003
10821 10836 10845 10855 10865 10874 10881 10891 10907 10913 10919 10929 10936 10941 10950 10956 10967 10974 10978 10984 10989 10992 10996 11000 11003 11005 11006 11008 11008 11008 11007 11008 11007 11006 11007 11008 11008 11009 11009 11009 11008 11008 11006 11005
10803 10818 10829 10841 10849 10859 10874 10887 10895 10897 10907 10920 10922 10928 10938 10950 10959 10962 10969 10975 10981 10986 10990 10994 10998 11000 11003 11005 11006 11006 11007 11007 11007 11006 11006 11007 11008 11010 11010 11010 11011 11010 11010 11008
10789 10800 10812 10825 10838 10849 10868 10872 10880 10886 10896 10907 10909 10911 10936 10942 10944 10954 10960 10967 10972 10979 10984 10989 10992 10996 10999 11001 11002 11003 11005 11006 11006 11006 11005 11006 11008 11009 11011 11011 11012 11012 11013 11012
10769 10778 10796 10810 10824 10838 10854 10859 10870 10879 10884 10889 10892 10895 10924 10927 10935 10943 10950 10957 10963 10969 10974 10981 10985 10989 10994 10996 10998 11000 11001 11004 11005 11006 11005 11005 11006 11008 11010 11012 11013 11014 11014 11014
10751 10756 10784 10796 10804 10824 10837 10848 10856 10858 10868 10871 10872 10899 10913 10917 10923 10930 10938 10945 10953 10958 10965 10973 10978 10983 10988 10991 10993 10996 10998 10999 11002 11003 11004 11004 11005 11006 11008 11011 11013 11015 11016 11017
10729 10750 10764 10774 10790 10805 10821 10828 10837 10852 10855 10862 10870 10883 10891 10895 10908 10921 10924 10939 10945 10950 10956 10964 10970 10975 10980 10984 10987 10990 10993 10995 10998 10999 11000 11001 11002 11004 11005 11008 11011 11013 11016 11018
10722 10737 10743 10762 10777 10789 10802 10811 10822 10835 10840 10847 10854 10860 10890 10888 10898 10905 10921 10922 10931 10938 10945 10948 10957 10965 10968 10975 10979 10983 10987 10989 10992 10994 10997 10997 10999 11001 11003 11005 11007 11011 11013 11016
10703 10717 10726 10731 10751 10774 10790 10797 10805 10820 10829 10841 10836 10845 10869 10867 10879 10891 10897 10908 10917 10926 10931 10938 10945 10956 10963 10967 10970 10977 10980 10983 10986 10988 10991 10993 10994 10995 10997 11001 11003 11006 11010 11013
10686 10697 10708 10730 10740 10752 10767 10778 10791 10807 10807 10817 10819 10841 10846 10856 10868 10879 10884 10894 10903 10911 10919 10927 10933 10942 10949 10958 10965 10971 10971 10975 10978 10981 10984 10988 10989 10990 10992 10994 10999 11001 11004 11007
10666 10675 10696 10694 10706 10723 10741 10766 10776 10788 10794 10808 10801 10823 10834 10844 10856 10866 10872 10881 10889 10897 10905 10913 10922 10928 10936 10945 10953 10961 10960 10965 10971 10973 10977 10981 10984 10987 10990 10991 10992 10995 10997 10999
10652 10663 10675 10690 10706 10720 10734 10745 10759 10772 10779 10775 10771 10797 10821 10831 10842 10851 10857 10866 10875 10883 10891 10899 10908 10917 10925 10931 10938 10946 10950 10955 10960 10964 10967 10972 10978 10981 10985 10987 10988 10988 10991 10992
10641 10652 10660 10674 10686 10698 10714 10729 10745 10750 10764 10763 10767 10804 10827 10818 10823 10833 10841 10849 10859 10868 10877 10886 10895 10904 10912 10919 10925 10931 10938 10944 10950 10956 10960 10964 10970 10974 10977 10981 10984 10985 10986 10987
10630 10639 10648 10659 10666 10679 10693 10706 10717 10726 10736 10732 10759 10787 10793 10801 10802 10811 10821 10832 10841 10850 10860 10870 10879 10888 10896 10905 10911 10917 10924 10931 10938 10944 10951 10956 10960 10964 10969 10972 10976 10979 10983 10985
10617 10626 10632 10640 10655 10662 10669 10693 10702 10711 10720 10718 10747 10775 10773 10778 10781 10791 10801 10811 10822 10832 10843 10853 10861 10871 10880 10888 10896 10903 10909 10916 10924 10931 10938 10944 10950 10953 10957 10964 10968 10971 10974 10977
10604 10612 10619 10629 10637 10643 10665 10668 10677 10685 10698 10701 10725 10748 10752 10755 10764 10776 10784 10796 10805 10813 10823 10833 10842 10851 10861 10870 10878 10886 10893 10900 10908 10916 10923 10930 10936 10942 10947 10952 10957 10961 10966 10968
10592 10599 10605 10613 10621 10630 10636 10657 10661 10667 10679 10686 10707 10719 10732 10738 10735 10762 10776 10781 10788 10794 10803 10812 10822 10832 10841 10849 10859 10866 10874 10883 10890 10899 10907 10914 10921 10927 10933 10938 10944 10950 10955 10958
10577 10585 10591 10596 10603 10608 10632 10628 10635 10642 10658 10671 10683 10700 10706 10711 10722 10753 10750 10753 10763 10773 10783 10792 10800 10811 10820 10828 10838 10848 10856 10863 10871 10879 10889 10896 10903 10910 10917 10925 10930 10935 10943 10947
10561 10568 10574 10580 10587 10595 10613 10605 10614 10628 10640 10651 10657 10671 10678 10687 10694 10721 10730 10730 10741 10752 10759 10768 10777 10788 10796 10805 10815 10824 10834 10842 10851 10860 10868 10877 10885 10892 10900 10907 10912 10921 10927 10932
10545 10550 10557 10562 10571 10585 10586 10589 10598 10605 10618 10628 10635 10645 10654 10662 10671 10690 10704 10709 10716 10727 10736 10745 10754 10762 10772 10783 10791 10798 10808 10818 10827 10836 10845 10855 10864 10872 10880 10888 10895 10902 10910 10917
10528 10533 10537 10544 10554 10558 10569 10573 10581 10588 10599 10605 10614 10621 10631 10640 10649 10659 10674 10682 10690 10701 10710 10718 10726 10735 10745 10756 10766 10775 10781 10792 10803 10813 10822 10832 10841 10851 10860 10868 10875 10883 10891 10899
10509 10514 10520 10527 10533 10540 10548 10555 10561 10567 10574 10583 10590 10597 10604 10613 10623 10630 10642 10653 10663 10673 10682 10690 10699 10707 10716 10724 10735 10744 10755 10765 10776 10786 10795 10806 10816 10827 10838 10845 10855 10863 10871 10880
10494 10498 10502 10507 10516 10519 10528 10532 10539 10546 10552 10559 10567 10573 10579 10586 10594 10601 10611 10620 10629 10637 10647 10655 10664 10675 10684 10693 10701 10710 10722 10734 10746 10756 10765 10775 10788 10800 10811 10822 10831 10840 10850 10859